Theta_e
305 305 305 305 306 306 305 304 304 304 304 305 307 308 308 307 307 308 307 306 307 308 306 307 307 307 307 306 306 307 307 307 308 307 307 308 308 309 309 310 311 312 312 312 313 314 316 317 318 321 321 319 316 316 318 319 321 325 324 325 328 328 327 321 317 320 324 326 327 327 326 325 324 323 325 326 324 321 318 317 317 314 311 310 311 309 316
305 305 305 305 305 306 306 305 305 304 304 305 307 308 306 306 307 307 307 307 308 307 306 306 307 306 307 307 306 307 306 306 307 307 307 308 308 308 310 310 311 312 311 312 313 313 315 317 318 319 320 318 315 316 317 319 321 323 323 325 325 323 323 322 317 316 318 319 321 321 323 323 322 323 325 326 326 326 324 322 321 316 312 311 311 309 315
304 305 304 304 305 305 306 305 305 305 303 304 306 308 307 306 306 306 306 307 307 306 306 306 306 306 307 307 306 307 307 306 307 307 307 308 308 308 310 310 309 311 311 312 313 313 314 316 317 318 318 318 315 315 316 318 318 319 321 324 324 323 325 324 318 315 314 315 316 316 318 321 323 324 325 325 326 325 322 317 315 314 315 315 311 309 317
303 304 304 304 305 305 305 306 305 305 304 304 306 309 308 305 305 305 305 307 307 306 306 306 306 307 307 306 307 306 306 306 307 307 307 307 308 308 309 309 309 310 311 312 314 314 314 315 316 316 317 318 316 315 316 317 316 320 324 323 323 326 328 326 322 318 317 319 322 325 324 320 317 320 323 324 325 326 323 315 312 314 315 314 316 317 320
303 303 303 304 305 305 305 305 305 306 305 304 306 309 307 305 305 305 304 305 306 305 306 306 306 307 307 307 306 306 306 306 306 307 308 308 308 308 309 309 308 309 311 312 313 314 315 316 315 316 316 317 317 315 315 316 317 321 323 321 322 326 325 326 328 323 326 330 329 328 327 321 317 320 321 323 326 325 322 315 315 320 315 311 321 327 320
303 303 303 303 304 304 305 305 305 306 305 305 307 308 306 306 305 304 305 304 305 305 305 306 306 306 307 306 306 306 305 305 306 306 307 308 308 307 308 308 307 308 309 310 312 314 316 317 316 316 315 315 316 316 316 317 316 319 319 318 323 326 322 325 328 325 329 333 327 327 327 326 325 324 321 323 324 323 319 318 323 325 316 314 325 330 325
302 303 302 302 302 302 304 305 305 306 306 306 307 308 306 306 305 305 305 304 304 305 305 306 306 306 307 307 306 306 305 305 306 306 306 309 309 307 307 307 307 308 308 309 311 313 314 315 313 313 313 314 316 317 317 317 316 316 317 318 322 323 323 327 327 324 328 329 327 327 326 325 326 326 324 325 325 324 322 323 326 327 322 324 330 329 327
302 302 302 302 301 301 303 305 305 306 306 306 308 307 306 306 306 305 305 305 305 305 305 305 306 306 307 307 307 307 306 305 306 305 306 308 308 307 307 307 306 307 308 309 310 310 311 312 311 311 312 312 314 315 315 315 315 315 317 319 321 321 323 328 327 322 323 326 327 327 325 324 323 323 327 326 325 325 324 324 326 325 323 328 332 329 329
301 302 301 301 301 301 302 304 305 306 306 307 307 307 307 306 306 306 306 306 306 305 305 305 305 306 307 307 306 307 306 306 306 306 307 308 308 307 307 307 306 307 308 308 309 309 309 309 309 309 310 310 311 312 312 313 313 315 316 318 320 320 322 324 325 321 320 323 324 324 324 325 321 320 325 326 322 322 324 326 326 325 324 325 326 325 329
301 302 301 301 302 303 304 305 305 305 306 307 307 307 307 307 306 306 306 306 306 305 305 304 304 305 306 306 306 306 306 306 306 306 307 308 308 307 306 307 307 308 309 310 309 308 308 308 307 308 308 309 310 311 311 311 312 314 315 316 318 320 320 320 322 320 319 321 323 322 321 321 317 319 324 326 326 326 326 327 329 328 328 326 323 326 334
301 301 301 302 304 305 305 305 306 306 306 307 307 307 307 306 306 306 306 306 306 305 304 305 304 305 305 305 306 306 306 307 306 307 307 307 307 307 306 306 307 308 309 309 308 307 307 307 307 307 308 308 309 310 310 311 312 313 313 314 317 319 319 319 321 320 318 319 321 321 319 317 320 324 326 327 327 327 326 326 328 329 329 328 328 332 333
301 301 302 304 305 306 306 305 306 306 306 306 307 307 307 306 306 307 306 306 307 305 305 305 304 304 304 304 305 306 306 306 306 306 307 306 306 306 306 306 307 308 308 308 307 307 307 307 308 308 309 309 309 310 310 310 311 312 312 313 315 318 319 320 320 319 317 318 319 318 317 318 323 326 327 326 327 327 327 327 328 327 327 328 328 330 331
301 302 304 305 306 306 306 306 306 306 306 306 307 307 307 306 306 307 307 306 307 306 305 305 304 304 304 304 305 305 305 305 306 306 307 307 306 306 307 307 307 308 307 306 306 307 308 308 309 309 310 309 309 310 310 310 310 311 311 312 314 316 318 319 319 319 319 318 317 318 320 323 324 327 328 327 328 327 325 324 325 327 328 328 328 328 329
302 304 305 306 306 306 306 306 306 307 306 306 307 307 307 307 306 306 306 306 307 306 305 306 305 305 304 304 305 305 305 305 306 306 307 306 306 306 306 306 307 307 306 306 307 307 308 310 310 310 310 310 310 310 310 310 310 311 310 312 313 314 316 318 318 319 320 317 316 318 321 322 325 327 329 329 329 328 326 322 325 328 328 329 331 333 333
304 305 306 306 306 306 306 306 307 307 307 307 307 307 307 307 307 306 306 306 306 306 306 306 306 305 305 305 305 305 305 306 306 307 307 306 306 306 306 307 308 307 306 307 308 308 310 311 311 311 311 311 311 312 311 310 310 310 311 311 312 313 315 318 319 318 319 317 316 318 318 319 322 325 327 329 328 328 330 326 326 331 331 330 335 338 339
304 305 306 306 306 306 306 307 307 307 307 307 307 308 307 307 307 306 306 306 305 306 307 306 305 305 305 305 305 305 306 306 306 307 307 308 307 306 306 307 308 308 307 308 309 309 310 311 310 310 311 312 312 312 313 312 310 310 310 310 312 312 313 316 317 317 317 317 316 318 316 318 324 326 327 329 329 331 333 327 325 333 336 335 336 337 337
305 306 306 306 307 307 307 307 307 307 307 307 308 308 308 308 307 306 306 306 305 305 306 305 305 305 305 305 305 305 305 306 306 306 307 308 307 306 306 307 307 308 307 308 309 309 310 310 310 309 309 311 311 312 313 313 312 312 310 310 311 312 312 314 315 316 318 317 317 317 317 320 327 327 326 328 329 331 330 323 325 337 341 338 337 337 338
306 306 307 307 307 307 307 307 308 308 307 307 308 308 308 309 308 307 306 305 304 304 306 305 305 306 305 305 305 305 305 305 306 306 307 307 307 307 307 307 307 307 308 308 309 310 310 310 311 310 310 311 311 311 312 313 314 313 312 311 311 312 312 313 314 315 316 316 316 316 318 322 326 328 328 329 327 327 326 325 332 344 342 339 340 340 340
306 306 307 307 307 307 307 307 307 307 307 307 308 308 309 309 308 307 306 305 304 304 306 306 305 306 306 305 305 305 305 305 305 306 306 307 308 307 306 307 308 308 308 308 308 309 310 310 310 310 310 310 311 311 311 313 315 315 315 313 313 313 313 313 313 314 315 316 316 315 318 322 325 325 326 325 324 327 330 334 339 342 340 339 339 339 341
306 306 306 306 307 307 307 307 307 307 308 308 308 309 309 309 308 307 306 306 304 304 305 305 305 305 305 306 305 305 305 305 305 306 306 307 308 306 306 308 309 309 309 309 309 308 309 309 310 309 308 308 310 311 310 311 313 314 315 315 315 315 315 314 313 313 314 315 316 316 319 324 324 322 325 328 328 330 334 336 336 336 337 338 338 339 341
306 306 306 307 307 307 307 308 307 308 308 308 308 309 309 309 308 307 306 306 305 304 305 306 306 306 306 306 306 305 305 305 305 305 305 306 307 307 306 308 309 308 309 310 309 308 308 309 309 310 309 308 310 311 310 310 311 312 313 314 316 317 317 315 315 315 314 313 315 319 321 323 323 323 325 328 330 330 330 331 333 336 337 339 340 340 340
306 306 307 307 307 307 307 307 308 307 308 308 308 308 308 309 309 308 306 306 305 305 305 305 305 306 306 306 306 306 306 306 305 305 305 305 306 306 306 308 308 308 308 309 308 308 309 309 309 310 310 309 309 310 310 309 310 311 312 313 315 316 318 318 318 318 317 316 318 320 321 321 321 322 323 324 325 325 325 327 332 335 336 337 339 340 340
306 306 307 307 307 307 307 308 308 307 308 308 308 308 308 308 308 308 307 306 306 305 305 305 305 305 306 306 306 306 306 306 306 306 305 305 305 306 306 307 308 308 309 309 308 309 309 309 309 310 310 310 310 311 310 309 310 310 311 312 313 314 316 316 317 317 318 318 318 319 320 321 321 321 321 321 321 322 323 325 327 330 332 334 336 338 340
306 306 307 307 307 307 307 308 308 307 308 308 308 308 308 307 308 308 307 306 306 306 306 306 306 306 306 307 307 307 306 306 306 306 305 305 305 305 306 307 307 308 309 310 310 309 309 309 310 310 310 310 311 310 309 309 309 310 310 310 311 313 313 313 315 315 316 317 318 319 320 320 320 319 319 320 320 321 322 323 325 328 330 331 334 335 338
306 306 307 307 307 307 308 308 308 308 308 308 307 308 308 308 308 308 307 306 306 306 306 307 307 307 307 307 307 306 305 306 306 306 306 306 306 305 306 307 307 307 309 309 309 308 309 309 309 310 310 311 311 310 310 310 311 312 312 311 311 312 313 313 313 314 315 316 317 317 317 318 317 317 318 319 319 321 323 323 324 325 327 329 332 333 334
306 307 307 307 307 308 308 308 308 308 307 307 308 308 308 309 309 308 307 307 306 305 306 306 307 307 307 306 306 306 305 305 306 306 306 306 306 306 306 306 306 307 308 308 308 308 308 308 309 309 310 310 310 310 310 311 312 313 313 312 311 311 313 313 313 314 314 314 315 315 315 316 316 316 317 318 319 322 322 322 322 323 323 326 329 330 332
307 307 307 308 308 308 308 307 307 307 308 308 308 308 309 309 309 308 308 307 306 306 306 307 307 307 307 306 306 307 306 306 306 306 306 306 306 306 307 306 306 307 307 307 308 308 309 309 309 309 309 310 310 310 311 311 312 311 311 311 311 311 311 312 313 313 313 313 314 315 315 315 316 316 317 318 319 320 321 321 322 323 323 323 324 327 328
307 307 307 308 307 307 308 307 307 308 308 308 308 309 310 310 310 309 307 306 307 308 308 308 307 307 307 307 307 307 307 307 306 307 307 307 306 307 307 307 306 306 306 307 307 308 309 309 309 309 309 310 310 311 311 312 312 312 311 311 311 311 312 312 312 312 313 313 314 315 315 316 316 317 317 318 318 318 319 320 321 321 322 322 323 325 328
307 307 307 307 307 307 307 308 308 308 308 308 309 310 311 311 310 309 308 307 307 307 308 307 307 307 307 308 308 308 307 307 307 307 307 307 307 307 307 307 306 306 306 307 307 308 308 308 309 309 309 310 310 311 311 312 311 311 312 312 311 311 312 312 312 313 313 313 314 314 314 315 315 316 316 317 317 318 318 319 319 320 320 321 321 323 326
307 307 307 307 307 307 308 308 308 308 308 309 311 312 313 312 310 309 309 308 307 307 307 307 307 308 308 308 308 308 308 308 307 307 308 308 307 308 308 307 307 307 307 307 307 307 308 307 308 308 308 308 308 310 311 311 311 311 311 312 312 312 312 312 313 313 313 313 314 314 314 314 315 315 316 316 316 317 317 318 318 319 320 320 321 322 325
307 307 307 307 307 308 309 310 310 310 311 312 313 314 314 313 310 308 308 309 307 307 307 308 308 308 308 308 309 309 309 309 309 309 308 308 308 308 308 307 308 308 308 308 307 307 308 308 308 308 308 308 308 309 310 310 311 311 312 313 313 313 314 313 314 314 313 314 314 314 313 314 315 315 315 315 316 316 317 317 318 319 320 320 321 323 326
307 307 307 308 308 309 310 310 311 312 312 312 312 312 312 311 308 307 307 308 308 308 308 308 308 308 309 309 309 309 309 310 309 309 309 308 308 308 308 308 308 308 308 309 309 309 309 309 309 308 309 309 309 310 310 310 311 311 312 313 314 314 314 314 314 314 313 313 314 314 314 315 314 315 315 315 315 316 317 317 318 319 320 320 321 324 327
307 308 308 308 309 310 311 311 312 312 312 312 311 310 310 309 308 307 307 308 307 308 308 308 308 308 309 309 310 310 310 310 310 310 310 310 309 309 309 308 308 308 309 309 310 310 309 309 310 310 311 311 311 311 311 312 312 312 312 312 313 313 313 313 313 314 314 314 314 314 314 315 315 315 315 315 316 316 316 317 318 319 319 320 322 325 328
309 309 309 310 310 312 313 312 312 313 313 313 313 312 310 309 308 307 307 308 307 307 307 307 307 308 309 309 311 311 311 311 312 312 313 314 311 310 311 311 310 310 310 309 310 310 310 311 312 311 312 312 312 311 312 312 312 312 312 312 312 312 312 313 313 314 314 314 314 314 315 315 315 315 315 315 315 316 316 317 317 318 319 320 321 324 328
310 310 310 311 312 313 313 313 314 315 315 315 314 312 309 308 307 307 307 308 307 307 307 307 307 308 309 311 313 313 311 312 312 312 314 315 313 313 314 313 312 312 311 311 311 312 312 312 312 311 312 313 312 312 313 313 312 312 312 312 311 312 313 314 314 314 314 315 315 315 315 315 315 315 315 315 315 315 316 316 317 317 318 319 320 324 328
312 311 311 311 313 314 315 315 316 316 316 315 313 311 308 307 307 307 307 307 307 307 307 307 307 308 310 311 312 312 311 312 313 313 314 315 314 314 315 314 312 312 312 312 311 311 311 311 311 311 312 313 313 313 312 311 310 310 311 311 312 313 313 314 314 315 315 315 316 316 315 315 316 316 316 316 316 315 316 317 318 318 319 320 321 325 328
314 313 312 312 314 316 319 318 316 314 314 313 311 309 307 307 307 307 306 306 307 307 306 306 307 308 309 310 311 311 312 312 313 314 315 315 314 315 315 313 312 312 312 311 311 311 311 312 312 311 312 313 312 311 310 309 310 311 313 314 316 316 317 316 316 315 316 316 316 316 315 315 316 316 317 317 316 316 316 318 319 319 320 321 324 327 328
317 316 315 317 319 320 320 318 314 312 312 311 310 309 308 309 309 309 308 307 308 308 306 306 307 308 308 309 311 312 312 312 312 313 315 315 315 315 314 313 312 312 312 312 312 312 312 312 311 311 312 312 310 309 309 310 311 314 315 316 318 319 319 318 317 317 318 318 317 317 318 318 318 317 318 317 317 316 317 318 319 319 320 323 328 329 329
320 321 322 322 319 318 319 316 313 311 311 311 311 313 314 314 314 315 313 311 311 310 308 307 308 308 308 310 313 312 311 312 314 315 315 315 314 315 315 314 313 313 313 313 313 312 312 312 311 311 312 310 308 308 310 312 313 314 316 316 318 320 320 320 319 319 319 319 319 319 320 320 320 318 318 317 317 317 317 318 320 320 322 327 331 331 329
321 322 321 319 317 318 318 316 313 312 314 314 315 317 319 318 318 319 318 316 316 315 313 311 311 309 308 310 313 313 312 313 314 315 315 314 313 314 315 314 313 313 313 313 313 313 312 311 312 312 311 308 307 309 311 312 313 314 315 316 317 319 321 322 322 322 322 322 321 321 322 321 321 320 318 318 318 318 318 318 320 322 325 329 331 330 328
319 320 319 317 317 318 319 318 317 317 319 319 318 318 319 319 319 319 319 318 318 319 318 317 317 315 312 311 313 314 314 313 313 313 315 315 313 313 315 315 314 313 313 313 314 314 312 311 311 311 309 308 309 311 312 312 313 314 315 315 316 317 319 321 323 323 324 324 324 323 323 323 323 322 320 320 320 320 319 320 322 324 328 330 329 328 328
316 316 317 317 318 319 320 319 319 319 318 317 317 318 318 319 319 320 319 318 318 319 320 320 321 320 317 313 314 315 316 314 313 315 316 315 314 314 315 315 315 313 313 313 314 313 311 310 310 309 309 310 311 312 312 312 313 313 314 314 315 316 317 319 320 321 322 324 325 324 323 323 323 323 323 323 322 322 323 324 325 327 330 330 329 328 328
317 317 318 319 321 321 319 316 316 317 317 316 318 319 319 318 318 320 320 320 320 319 319 319 320 320 318 317 317 318 317 315 315 317 318 317 316 315 315 314 313 313 314 313 312 310 309 309 309 309 310 312 312 313 313 313 312 313 313 314 315 315 316 317 317 317 318 320 322 323 323 323 323 324 326 326 325 324 325 327 328 330 331 330 329 328 327
321 320 320 319 317 317 317 316 316 317 317 317 318 319 319 319 319 319 320 320 321 319 318 318 320 320 319 319 320 320 319 317 317 318 319 317 315 314 314 313 313 312 313 312 310 309 309 309 310 311 313 313 312 313 313 313 312 313 313 313 314 314 315 315 315 315 316 317 318 319 319 320 320 321 324 326 326 325 326 327 327 328 328 328 328 328 327
320 317 316 316 315 315 318 318 316 315 317 317 317 317 318 319 319 319 318 319 318 316 315 317 319 318 318 318 318 318 318 319 319 318 318 315 313 313 313 312 311 310 309 309 309 309 309 309 310 312 313 313 313 313 312 312 312 313 313 313 313 313 314 314 314 314 314 315 315 315 316 316 316 316 317 320 322 324 326 326 325 325 325 325 325 326 326
316 315 315 316 315 314 316 317 315 314 314 315 314 314 315 316 317 317 317 317 318 316 315 315 316 317 317 317 317 316 315 316 316 316 315 314 313 312 311 310 310 310 310 309 309 309 309 309 310 311 311 312 314 313 312 312 312 313 313 313 313 313 313 314 314 314 314 314 314 314 314 314 314 314 315 315 316 319 321 322 321 321 321 321 321 322 323
316 316 314 314 314 314 314 314 314 314 314 314 314 314 315 315 316 316 316 316 317 318 317 316 315 315 315 316 316 315 314 314 314 314 313 313 312 311 310 310 310 310 310 310 310 311 311 311 311 311 311 311 313 313 313 314 313 313 313 313 313 313 313 313 313 313 313 313 313 313 313 313 313 313 313 314 314 315 316 317 317 316 317 317 317 317 317
316 315 314 314 314 314 314 314 314 314 314 314 314 314 314 315 315 315 316 316 317 317 317 317 317 316 315 315 315 314 314 314 314 313 312 312 312 311 311 311 310 310 311 311 311 312 311 310 310 310 310 310 311 312 313 314 314 314 313 313 313 313 313 312 313 313 313 313 313 312 312 312 312 312 312 312 313 313 313 314 314 314 314 314 314 314 314
315 314 314 314 314 314 314 314 313 313 313 313 313 313 314 315 315 315 316 316 316 316 316 316 316 317 315 314 314 314 314 314 313 312 312 312 312 311 311 312 311 311 312 312 312 312 311 309 309 310 310 309 310 311 311 312 313 313 313 314 314 314 313 313 313 313 313 313 313 313 312 312 311 311 311 311 311 311 311 311 312 312 312 312 313 313 313
315 314 313 314 314 314 313 313 313 312 312 312 313 313 313 314 314 315 315 315 316 316 315 315 314 315 314 313 313 314 314 314 313 313 313 313 312 311 312 312 312 312 312 312 312 311 310 309 309 310 310 309 309 309 309 310 310 311 312 313 314 314 314 314 313 313 313 313 312 312 312 312 312 312 311 311 311 310 310 310 310 311 311 311 312 312 312
314 313 313 313 313 313 313 313 312 312 311 312 312 313 313 313 313 314 315 315 315 315 315 314 314 313 313 314 314 314 314 313 313 313 313 313 312 312 312 312 312 312 312 312 310 309 309 309 309 309 309 309 309 308 308 308 309 310 311 312 312 312 313 313 313 313 313 312 312 312 312 313 312 312 312 311 310 310 311 310 310 310 310 310 310 310 310
313 313 313 314 313 312 313 313 312 312 312 311 312 312 313 313 313 314 314 315 314 314 313 313 313 313 313 313 314 314 313 313 313 313 314 313 313 313 313 313 311 311 311 311 310 309 308 309 309 309 309 309 309 308 308 308 308 308 309 310 310 311 312 312 312 312 311 311 311 312 312 312 311 311 311 312 312 312 312 311 310 309 309 309 308 308 308
Wind_Speed
21 21 22 24 26 27 28 29 30 32 33 28 25 20 10 5 8 9 13 17 18 11 4 5 5 4 8 9 9 9 9 10 12 12 12 10 9 8 9 13 13 13 14 13 14 12 10 13 13 4 4 5 7 9 11 11 7 5 7 12 11 3 4 9 9 10 13 16 19 19 21 21 18 16 15 14 14 13 10 8 6 8 10 9 6 6 4
21 21 22 23 25 26 27 28 28 29 30 26 22 14 7 6 8 6 11 17 14 7 5 6 6 6 9 10 9 9 8 9 12 13 12 9 9 10 9 11 12 14 15 14 15 13 11 14 13 7 5 2 6 7 10 11 7 2 3 3 4 4 9 10 8 10 12 13 15 16 18 17 13 14 17 18 18 17 13 9 6 7 10 12 9 7 4
20 21 21 22 23 24 25 26 26 27 28 26 20 11 7 8 6 3 10 14 9 4 5 6 7 8 10 11 10 9 7 8 10 13 12 9 10 11 9 11 13 14 14 14 15 15 13 11 7 7 8 2 4 5 7 9 8 7 10 11 6 5 10 10 9 12 12 11 11 11 15 15 11 15 22 22 22 21 15 9 7 7 9 10 9 6 5
20 20 21 21 21 22 23 24 25 24 25 26 20 14 9 7 6 6 8 8 6 4 6 7 7 8 9 9 9 9 9 8 8 10 9 9 11 11 8 10 13 12 12 13 13 14 15 13 8 7 9 6 2 3 6 6 7 11 15 11 6 5 8 11 15 14 6 2 3 4 10 15 16 19 23 24 24 22 16 11 9 8 7 8 8 6 9
19 20 21 21 20 21 22 23 24 23 23 24 18 13 9 6 6 8 7 6 5 5 6 7 7 9 9 7 7 9 10 8 7 6 5 7 12 10 6 8 11 10 12 13 11 14 16 13 9 8 10 9 4 1 4 4 6 12 12 5 4 6 8 12 19 18 9 4 9 9 6 14 18 22 23 23 24 25 20 14 12 10 8 8 9 7 5
20 20 21 21 20 20 20 21 22 22 23 22 15 8 6 6 6 8 8 7 7 7 9 9 10 12 10 6 7 9 9 9 8 6 5 5 8 8 5 7 11 11 11 11 10 14 14 9 10 12 11 12 7 5 4 2 5 9 6 1 3 6 9 13 18 18 12 6 7 10 7 9 12 18 24 25 24 26 24 19 15 13 9 7 11 13 9
20 20 21 22 22 21 20 20 21 21 22 21 13 7 6 6 6 7 8 9 9 10 11 11 12 12 9 6 6 7 9 10 8 6 6 4 5 5 6 10 13 11 9 8 8 11 11 8 11 13 11 13 10 3 1 2 3 7 4 1 4 4 6 10 15 18 14 10 8 9 7 7 8 12 18 23 24 25 24 21 19 17 13 8 10 15 14
20 21 21 22 23 22 19 18 19 20 21 18 12 7 7 6 5 6 7 9 9 10 10 9 10 9 7 5 4 6 9 10 8 7 7 5 3 3 7 11 13 11 8 7 7 9 9 8 10 12 12 12 10 7 6 6 7 8 5 3 4 3 2 3 7 12 13 11 9 8 7 6 7 7 10 17 23 24 22 21 20 17 15 12 8 9 12
21 21 22 23 23 23 20 17 17 19 19 15 9 8 9 10 9 7 7 8 9 9 9 8 8 7 5 4 6 8 9 9 9 8 5 4 5 5 7 10 11 11 9 7 8 9 10 10 11 13 13 11 9 7 8 9 10 8 5 4 4 4 2 2 4 7 10 12 11 10 8 7 9 9 10 12 15 17 17 16 15 13 13 12 9 7 7
22 22 23 24 23 22 21 18 16 17 16 12 7 7 10 12 11 8 6 7 9 9 9 8 7 6 4 5 8 10 10 8 9 7 2 3 5 4 5 8 8 9 10 8 7 9 11 12 13 12 13 13 13 10 9 11 9 7 7 6 4 3 4 3 7 6 9 14 14 11 9 8 10 11 12 10 9 11 12 11 11 11 10 8 8 7 6
23 24 24 24 23 22 21 20 18 16 16 13 9 10 12 11 8 7 6 7 8 9 9 8 7 6 7 9 9 10 11 9 8 7 5 5 6 5 5 8 8 8 10 10 9 10 12 14 14 13 14 15 15 13 12 13 11 7 7 7 5 4 5 4 5 6 9 11 10 10 12 11 9 8 10 12 12 12 12 11 12 12 10 8 7 6 5
25 25 26 25 24 23 23 22 20 17 17 17 15 15 16 12 7 6 5 6 9 9 8 9 10 10 11 12 11 10 11 11 10 10 10 10 10 8 7 7 8 8 9 11 12 13 13 14 14 14 15 15 14 14 14 14 13 10 8 8 6 5 4 4 3 6 8 8 8 10 13 11 8 8 10 13 15 15 15 15 14 14 13 13 12 9 7
27 27 26 26 25 24 23 22 21 19 19 20 18 19 20 15 8 5 4 6 8 8 8 11 13 13 13 12 11 10 11 11 11 11 11 9 10 11 8 7 8 8 9 11 13 13 11 10 10 11 13 13 13 15 16 16 15 13 11 9 7 5 5 5 4 5 6 6 8 9 6 4 6 8 6 7 11 16 17 16 16 15 14 13 12 12 10
28 27 27 27 26 25 23 22 22 20 19 20 21 21 21 17 10 5 4 6 7 8 10 11 12 13 13 12 12 11 10 10 10 9 9 8 9 10 9 8 8 8 8 9 9 9 8 6 6 6 7 9 10 11 15 15 15 16 14 11 8 6 6 6 6 6 6 6 8 7 3 2 5 8 6 5 8 11 11 12 13 14 13 9 7 7 6
29 28 27 28 26 25 24 23 22 21 20 19 21 22 21 20 17 11 5 5 7 8 8 8 9 12 13 12 11 11 9 8 7 7 7 6 6 7 8 8 10 9 8 7 7 6 6 6 6 5 5 7 8 9 10 11 12 15 15 11 9 8 6 6 6 7 7 7 9 9 8 7 7 8 8 8 9 8 6 7 8 9 10 8 5 4 5
29 28 27 28 27 25 25 23 22 21 20 20 22 23 23 24 22 17 9 4 5 6 5 7 11 13 13 12 11 10 8 6 6 7 6 4 4 6 7 8 9 10 8 7 6 6 7 6 6 5 3 3 5 6 7 7 9 12 14 13 11 9 8 6 7 8 9 10 10 10 10 7 6 9 12 9 6 5 5 6 7 6 4 4 5 7 7
29 29 28 28 27 26 25 24 22 22 20 21 23 24 24 23 22 20 11 4 6 7 7 10 13 11 9 9 9 8 6 6 6 6 5 5 6 7 7 7 8 10 9 7 5 5 6 6 5 6 4 1 3 5 5 6 7 10 12 13 12 10 7 7 8 10 10 10 9 9 7 2 1 3 8 7 5 5 7 9 6 4 4 3 2 5 3
29 29 28 28 28 27 26 25 24 23 22 21 23 24 25 24 22 21 13 4 6 7 7 11 12 9 8 9 9 8 7 7 6 5 6 6 5 5 7 7 7 8 6 5 6 5 5 5 4 5 4 1 4 6 3 4 5 7 10 10 10 9 7 7 9 11 11 11 10 9 6 2 2 3 6 5 4 6 7 6 3 5 5 4 3 4 3
30 29 29 28 28 27 27 26 25 24 23 21 22 23 23 21 20 22 15 4 5 6 5 8 11 10 10 10 9 8 8 8 7 5 6 5 3 6 9 7 4 4 3 3 6 5 4 4 3 4 4 2 3 5 5 4 3 3 7 10 9 9 8 7 8 9 11 11 9 10 7 1 4 2 5 4 4 5 3 2 6 6 5 4 5 5 6
31 31 30 30 29 28 27 26 25 24 23 21 22 23 23 20 17 21 20 9 4 7 9 12 14 15 14 12 11 10 9 8 7 5 6 5 5 8 8 3 1 3 2 2 5 5 3 4 4 3 4 2 2 4 5 6 5 4 6 7 6 5 6 8 9 8 9 10 11 11 7 3 9 4 2 3 1 0 3 7 8 7 7 7 7 6 7
31 31 31 30 30 29 27 26 25 24 23 21 22 23 22 19 16 20 28 20 7 4 7 10 14 16 15 14 14 13 12 11 10 7 7 7 5 6 6 3 3 4 2 1 4 4 3 4 4 3 3 3 3 3 4 5 6 6 7 6 4 3 5 7 8 6 7 10 9 5 1 5 9 5 2 5 6 5 6 7 7 6 8 8 7 7 9
31 31 30 29 29 28 27 26 25 24 23 22 22 21 19 16 14 14 26 27 15 9 10 9 12 16 18 19 20 20 19 19 17 13 10 7 6 6 6 7 6 4 3 3 4 3 3 4 4 4 4 4 4 4 5 5 5 5 6 6 4 2 2 4 3 3 5 7 5 4 5 5 5 4 4 7 8 7 8 8 7 7 7 8 8 9 11
31 31 30 29 29 28 27 26 25 24 23 22 21 20 19 17 14 12 22 24 15 12 15 15 15 18 20 22 22 22 21 20 19 17 13 9 6 6 7 7 5 3 3 4 5 5 4 4 5 5 5 4 5 5 6 6 5 4 5 5 4 2 2 4 5 5 7 9 9 8 6 4 4 6 7 9 10 9 9 9 8 8 9 9 10 11 13
31 30 30 29 29 27 27 26 25 24 23 21 21 21 21 19 14 10 17 15 8 7 10 12 11 11 13 14 12 13 14 15 15 16 14 12 8 6 5 4 3 3 3 3 4 4 4 4 5 5 5 5 5 5 5 5 5 5 5 6 6 6 6 7 7 6 6 7 8 8 6 4 5 8 9 9 9 9 9 9 9 9 11 11 11 13 15
30 30 29 28 28 27 27 26 25 24 23 22 21 21 19 15 10 10 15 10 5 5 6 7 9 11 12 12 12 11 11 11 11 12 14 14 13 9 6 4 3 4 4 3 3 4 4 5 5 5 6 5 4 4 5 5 4 5 5 6 6 3 2 6 9 9 9 10 11 11 10 10 10 9 9 9 8 8 9 9 9 11 12 12 11 12 13
29 29 28 28 28 28 27 26 26 26 25 23 21 19 17 13 9 11 16 10 3 4 6 6 7 9 9 11 12 11 10 11 11 11 12 14 15 14 13 10 7 6 6 4 4 5 5 5 6 6 6 4 4 5 6 6 6 7 7 8 7 4 3 5 8 9 10 12 14 13 13 13 12 12 12 9 7 8 9 10 11 12 12 13 13 12 11
29 28 28 28 28 28 28 28 27 25 24 21 17 16 14 11 9 11 17 15 6 2 6 6 4 5 8 12 15 13 12 14 15 14 14 15 15 15 14 12 9 7 6 6 5 4 4 6 6 7 6 5 6 7 7 7 8 9 8 8 8 7 8 8 8 8 9 10 11 11 11 10 9 10 11 8 7 9 10 11 11 12 12 14 15 14 13
28 28 28 27 28 29 29 28 26 22 20 17 12 10 8 6 7 9 17 22 13 3 3 4 4 5 8 11 11 11 12 13 15 15 15 16 15 15 14 11 9 7 7 6 5 5 6 6 6 6 6 5 6 7 7 8 9 9 9 9 8 9 10 9 9 10 10 11 11 10 9 9 9 11 13 10 8 10 12 12 12 13 12 13 14 14 14
27 27 28 28 29 30 28 25 22 19 14 9 5 3 2 2 3 5 13 22 17 6 3 5 5 5 6 6 5 7 9 10 11 12 13 13 13 13 12 10 9 8 7 7 6 6 6 6 6 6 5 4 5 6 7 7 8 9 11 11 10 10 11 11 12 13 13 13 13 11 10 11 12 14 15 13 10 11 13 13 13 13 12 12 13 12 13
28 28 28 29 29 27 22 19 17 12 5 0 2 3 1 3 2 3 8 16 18 9 3 3 3 3 5 6 6 7 8 8 10 12 13 12 11 10 10 9 8 6 6 6 6 6 6 6 6 7 7 6 5 5 6 7 8 9 12 13 12 12 12 12 13 14 13 13 13 12 12 13 13 14 15 14 12 12 13 14 14 13 12 12 13 12 12
29 28 28 28 25 20 15 12 10 8 5 2 2 3 1 3 1 2 4 11 15 11 3 3 4 4 4 3 4 5 6 7 8 11 12 11 10 10 10 9 6 5 6 6 5 6 6 6 6 7 7 6 6 6 7 8 9 10 13 13 10 9 10 10 10 12 13 13 13 14 14 14 13 13 14 15 14 14 14 14 14 13 13 13 13 13 12
30 29 27 24 18 11 8 9 10 10 7 6 6 5 4 3 1 1 3 8 11 8 3 3 4 4 2 0 1 3 5 6 7 7 8 8 7 8 9 8 6 6 6 5 4 4 5 6 7 8 7 5 4 6 8 9 10 13 15 14 11 10 11 11 11 12 13 13 13 15 15 16 16 16 16 15 15 15 15 15 13 12 12 13 13 13 12
31 27 23 17 8 6 10 11 11 10 7 6 9 8 5 3 1 2 5 7 6 3 2 3 4 3 2 2 1 1 3 4 4 4 5 5 5 5 6 6 6 6 6 5 4 3 4 5 6 7 6 3 2 4 7 9 13 17 19 17 16 16 16 16 16 15 15 15 15 15 16 16 17 18 18 17 16 16 16 15 13 12 12 12 12 13 11
27 22 16 8 5 10 10 9 9 8 5 5 7 6 5 3 4 7 8 6 3 0 1 2 3 3 3 3 0 2 1 3 2 2 2 2 3 3 3 4 4 4 5 5 4 4 5 5 5 6 5 2 2 5 7 10 13 16 18 19 20 20 20 20 20 18 17 16 16 16 17 17 17 17 18 18 18 17 16 15 14 13 13 11 11 12 10
20 15 9 3 10 11 8 6 5 3 2 5 6 4 3 5 10 10 6 2 0 1 0 1 3 3 4 3 2 3 3 4 2 0 1 1 2 2 1 1 3 3 3 3 4 5 4 2 2 4 3 2 3 5 6 10 15 17 19 21 22 21 20 21 21 20 18 17 16 15 15 16 18 19 19 19 20 19 18 16 16 15 13 11 12 12 10
12 9 4 7 11 7 4 3 2 2 3 5 4 2 5 11 12 7 2 1 1 1 1 2 2 2 4 3 3 4 5 4 3 2 1 0 1 0 1 1 2 2 1 2 3 4 2 1 2 3 2 2 3 5 7 14 20 22 22 23 22 21 22 23 23 22 20 19 20 20 17 18 19 19 19 20 20 19 19 18 17 15 14 12 12 11 10
6 4 3 8 7 5 2 5 7 6 3 3 5 8 11 11 8 3 1 0 1 1 0 1 2 2 3 3 2 4 5 3 3 2 2 1 2 1 1 1 2 1 1 2 2 3 3 3 3 3 3 2 5 9 13 16 18 20 20 20 17 16 17 19 20 21 21 22 24 23 20 20 19 17 17 20 21 20 19 18 16 14 14 13 11 11 10
5 0 5 6 4 1 3 6 6 4 4 7 8 9 7 6 3 1 1 2 1 2 2 1 1 1 2 3 3 5 5 3 3 3 2 1 2 1 1 1 1 1 3 2 1 2 3 3 2 3 3 4 8 12 14 15 15 15 15 16 15 14 13 14 17 18 18 19 20 20 18 19 21 19 18 20 21 19 17 16 13 13 13 11 11 10 9
6 2 5 2 3 4 5 6 4 6 9 8 5 3 3 4 2 0 1 2 2 2 2 2 1 1 1 3 3 5 4 3 4 4 3 2 3 2 1 2 1 2 3 3 1 1 3 3 2 3 4 6 11 14 14 15 17 16 16 17 17 14 10 11 16 18 18 18 19 18 17 18 20 20 19 18 18 17 16 15 13 12 12 11 10 8 6
7 3 2 4 6 5 5 5 3 7 7 5 4 3 1 1 1 1 0 1 1 1 2 1 1 2 3 3 3 3 2 2 4 4 3 3 2 1 1 2 2 2 3 3 2 2 3 3 3 4 6 10 14 15 15 16 17 18 18 19 19 18 14 9 7 11 16 19 19 17 16 16 16 17 17 17 16 16 16 15 13 12 12 11 9 7 6
7 5 4 4 4 2 0 0 2 4 2 1 1 1 3 4 2 1 3 5 4 2 1 1 1 1 2 3 2 1 1 1 1 2 2 2 1 1 2 2 1 1 4 4 3 3 3 3 4 6 9 11 13 14 14 16 18 19 21 22 22 20 18 14 12 8 7 12 12 10 10 10 10 11 14 16 15 14 14 13 12 12 13 12 11 10 8
5 4 2 3 5 5 3 1 2 2 2 3 3 3 4 4 3 3 4 5 4 3 3 2 2 3 2 2 2 1 0 1 1 2 1 2 1 1 2 2 1 2 4 4 4 4 5 6 7 9 11 13 13 13 14 16 18 20 23 24 22 21 19 17 17 16 11 4 2 1 2 4 6 7 9 11 11 10 9 10 11 11 11 12 13 11 10
7 6 4 3 4 3 1 3 4 3 2 3 4 4 5 5 4 4 3 1 1 3 5 4 2 2 3 2 1 1 1 2 2 2 1 1 0 0 2 3 4 3 2 2 3 6 8 8 9 10 11 13 14 14 14 16 17 18 21 23 22 22 21 21 21 22 20 15 10 9 8 6 4 4 5 6 8 6 5 6 8 8 7 11 14 15 13
5 4 3 1 2 3 3 3 3 3 3 3 4 6 7 7 6 6 5 3 2 3 5 5 5 3 3 2 0 0 1 2 2 1 1 2 2 3 4 4 4 3 1 2 5 7 7 7 8 9 10 11 13 14 14 15 15 16 18 22 24 25 25 25 25 25 22 20 18 16 14 13 13 12 10 7 7 8 9 12 15 17 15 13 14 17 18
3 3 3 2 2 3 2 1 3 4 5 5 6 7 7 7 7 7 6 5 4 4 5 5 6 6 5 3 1 1 2 1 1 1 2 3 4 6 5 4 4 4 4 5 7 7 8 9 10 11 11 13 14 14 14 14 14 15 17 20 24 26 26 25 25 23 20 19 20 19 17 16 15 13 13 16 17 13 13 17 19 20 20 18 15 16 20
4 4 4 3 3 3 3 3 4 5 6 6 7 7 7 7 7 6 5 5 5 5 6 5 5 5 5 4 2 3 4 3 3 3 3 4 5 6 5 4 4 5 6 7 8 8 9 10 10 11 12 13 13 13 13 13 13 15 16 18 20 23 23 23 24 22 19 18 20 19 17 16 15 15 17 22 23 21 20 24 25 25 24 20 15 17 23
3 3 3 3 4 4 5 6 6 6 7 7 7 7 7 7 7 6 6 6 5 4 3 3 3 3 4 4 3 3 4 4 4 5 4 4 4 4 4 4 5 5 5 7 7 7 7 9 9 10 12 13 13 13 13 12 12 14 15 16 18 21 21 21 22 21 20 20 21 20 17 15 17 19 21 21 22 24 27 31 32 33 31 25 22 25 30
3 3 3 3 4 5 6 6 6 6 7 7 7 8 8 7 7 8 7 7 5 5 5 4 3 2 2 3 3 4 4 4 4 5 4 3 3 3 3 4 5 4 4 5 6 6 7 9 9 10 12 13 13 14 13 13 14 15 16 15 17 19 20 20 21 21 21 21 19 17 17 19 21 23 22 19 20 25 29 31 33 34 33 30 29 31 32
4 3 4 4 4 5 6 6 6 7 8 8 8 8 8 8 8 9 8 7 6 5 5 4 4 3 3 3 3 5 5 5 4 4 4 4 5 4 4 4 4 4 4 5 4 5 7 9 9 11 12 13 13 13 14 14 15 15 14 14 14 14 15 17 20 22 22 21 18 17 19 21 23 23 22 20 20 25 32 34 35 35 35 33 31 31 31
5 5 5 6 6 6 6 6 7 8 8 8 8 9 9 9 9 9 9 9 7 5 4 3 4 4 4 3 3 4 5 5 4 5 5 5 5 5 4 5 4 3 3 4 5 5 7 8 9 10 12 13 13 13 14 14 15 15 15 15 16 15 15 17 19 21 22 22 23 22 22 21 20 20 21 21 23 27 32 35 34 32 32 32 31 30 29
4 5 6 7 7 7 7 7 7 8 8 8 8 9 9 9 9 10 11 9 7 6 5 5 4 4 5 5 4 3 3 3 4 5 6 5 4 4 5 6 5 3 2 3 5 6 6 7 8 9 11 12 13 13 13 13 14 15 16 18 19 19 19 19 20 20 21 22 23 22 21 20 21 23 24 26 27 26 25 25 28 28 28 28 28 28 26
4 5 6 7 7 7 7 7 7 7 8 8 8 8 9 8 9 11 11 9 7 6 7 6 4 5 5 5 4 3 3 4 5 6 6 5 4 4 4 5 6 5 4 4 5 6 6 7 8 9 10 11 12 12 13 13 13 15 17 19 19 19 20 20 19 19 19 20 20 20 20 21 24 25 25 25 22 18 14 16 21 25 25 24 25 25 24
Wind_Direction
344 345 345 344 346 349 352 355 356 355 356 354 347 334 322 334 330 332 352 346 332 325 333 353 342 353 356 335 334 350 338 337 344 340 342 338 322 317 302 297 301 297 299 297 285 283 278 264 259 271 31 47 32 357 337 328 302 249 226 211 200 195 271 251 226 197 201 203 193 198 209 208 203 206 209 208 204 203 209 211 193 193 204 203 212 228 165
343 343 343 343 344 346 350 355 355 356 358 352 340 335 337 327 310 329 0 346 329 330 353 349 344 346 341 331 337 346 339 346 348 338 345 351 331 322 312 309 316 309 307 310 298 289 281 263 253 267 302 38 46 353 334 341 328 313 344 276 204 205 224 227 231 208 192 194 191 191 204 211 209 203 204 211 210 203 207 215 206 202 201 195 198 217 184
342 341 342 341 342 343 346 351 355 356 356 352 340 326 325 326 315 346 356 341 330 343 350 339 336 337 335 332 335 337 336 352 354 339 341 356 342 325 318 321 321 310 303 303 296 283 273 270 274 288 282 269 62 357 329 343 352 5 348 324 308 246 219 211 222 213 192 190 196 190 195 203 211 206 201 207 211 206 204 208 212 209 195 194 206 199 133
343 341 342 341 340 341 340 344 352 354 354 353 340 315 313 331 334 344 348 337 331 342 338 330 330 333 332 331 332 329 328 343 356 342 340 1 351 329 323 328 322 319 319 309 292 283 279 268 263 289 288 273 92 20 322 340 3 344 325 309 297 256 226 221 227 227 214 221 275 248 204 199 205 207 201 202 208 208 206 208 210 206 189 195 215 190 134
340 339 340 341 339 339 337 338 345 350 352 351 338 313 317 336 333 341 344 330 328 336 330 330 332 326 322 325 326 324 325 331 340 338 340 8 359 335 324 338 329 330 333 318 302 306 300 276 267 300 309 309 328 284 290 340 0 325 311 298 285 257 230 225 229 236 251 311 337 330 247 210 209 208 204 202 204 206 210 213 205 196 197 197 204 213 171
336 336 338 339 339 337 335 334 338 343 347 348 338 321 336 339 328 341 339 319 319 324 321 323 318 308 307 314 312 312 322 327 331 336 331 11 20 355 326 335 332 329 331 321 314 323 325 328 344 349 339 321 302 208 205 24 5 324 312 300 297 262 230 226 226 231 240 254 305 312 275 241 234 220 208 202 202 205 208 213 207 198 210 202 185 203 214
334 335 336 338 338 336 333 332 332 336 341 341 329 314 332 328 315 334 333 315 309 308 309 311 306 303 307 308 304 311 320 324 332 335 320 341 41 10 318 325 328 323 323 322 320 329 338 353 354 347 334 320 311 268 168 63 15 340 331 322 316 277 233 234 226 226 234 233 251 283 287 276 263 236 217 206 204 205 206 210 209 203 213 214 180 192 206
331 333 333 333 335 333 331 330 328 330 336 337 324 309 322 328 324 329 322 311 306 304 305 306 301 300 298 293 314 326 314 317 333 329 314 324 2 328 299 314 321 317 315 310 301 312 326 328 325 322 319 322 326 341 359 6 357 342 335 348 324 261 228 278 246 234 234 225 226 254 273 267 261 263 247 221 207 203 204 207 207 204 206 204 171 174 200
328 328 328 329 330 328 327 326 324 326 330 331 323 312 313 316 316 314 309 307 308 307 305 302 298 297 297 305 325 321 309 316 327 320 309 312 313 305 300 309 314 309 304 297 290 298 307 305 301 301 304 309 311 317 330 335 335 331 334 348 316 269 282 306 246 239 235 221 217 228 241 258 265 258 246 227 210 202 203 205 206 205 203 196 183 179 190
323 323 324 325 325 321 320 320 318 320 320 314 307 307 311 313 310 302 297 298 301 304 302 297 297 301 312 318 310 304 307 316 315 308 291 243 254 252 280 296 301 301 301 302 298 297 294 292 292 290 290 291 289 289 296 298 304 316 320 323 313 301 314 257 216 224 232 219 212 218 229 245 251 234 217 215 217 212 208 206 210 213 210 203 198 199 197
319 320 321 321 318 314 314 314 313 313 306 295 286 289 297 305 306 300 296 287 291 303 304 299 301 303 305 307 303 301 304 306 305 306 308 289 269 247 263 286 287 289 298 302 299 293 288 283 281 275 272 274 276 279 283 282 283 294 300 302 312 313 302 273 227 222 221 206 199 214 224 225 223 216 213 217 220 220 218 215 216 217 219 225 222 215 213
316 317 316 314 312 310 310 310 308 305 296 290 284 277 281 287 290 288 284 280 290 300 299 296 302 307 304 300 299 301 302 302 305 303 299 301 298 288 281 281 280 285 294 297 297 299 294 285 278 267 257 255 258 263 268 269 270 272 271 276 292 302 282 269 259 243 218 170 161 208 224 229 226 216 225 232 226 224 229 231 228 223 220 226 231 230 227
313 312 311 310 309 309 308 307 304 299 292 289 280 271 275 280 274 270 277 275 284 293 296 297 300 301 301 299 299 300 297 297 298 292 287 291 294 296 298 289 286 293 299 300 302 303 300 291 281 269 253 242 241 245 248 250 253 255 253 254 265 283 276 249 238 260 244 184 179 205 224 256 231 205 217 251 233 220 222 228 231 229 226 226 227 228 226
309 308 308 308 309 308 307 306 303 297 292 287 277 273 278 274 254 247 278 270 273 290 295 295 297 298 301 304 305 304 299 295 294 289 290 295 292 296 304 301 298 301 299 300 301 294 289 285 276 264 241 228 229 234 235 235 236 238 236 236 239 254 271 252 224 235 250 224 203 197 175 175 199 189 195 233 229 220 224 230 226 224 229 234 229 229 228
307 307 307 307 307 307 307 306 302 297 292 286 279 275 274 266 248 234 237 259 274 287 284 280 296 307 310 309 306 305 304 301 302 297 289 287 289 295 303 303 301 301 295 292 291 281 277 281 275 255 215 205 217 223 221 217 215 219 223 222 220 227 243 249 235 226 230 230 218 209 208 209 199 185 188 209 221 215 221 242 231 215 217 219 215 233 252
307 307 307 307 307 307 307 306 302 297 291 286 281 273 268 265 251 230 219 243 263 267 283 307 314 309 301 299 299 299 302 306 313 312 293 283 304 305 303 304 299 296 292 284 282 276 270 270 271 260 228 207 235 224 204 202 198 196 203 205 203 212 227 241 244 231 218 220 223 219 220 222 207 185 179 186 199 178 175 217 222 196 174 187 219 241 248
307 307 307 308 309 308 307 305 301 298 292 286 283 274 268 268 252 226 214 221 236 249 287 304 306 301 289 295 301 298 304 310 305 306 303 307 320 310 304 312 302 292 289 280 267 265 266 269 273 265 261 327 286 243 205 212 207 183 183 194 196 200 210 218 226 225 219 221 224 222 220 236 353 164 160 156 156 161 183 196 179 112 68 67 252 255 253
307 308 309 310 309 309 309 307 303 302 297 290 286 278 273 274 254 224 207 210 236 246 266 268 277 290 288 296 305 299 304 307 297 300 300 293 309 316 307 308 301 297 306 299 279 269 270 277 282 274 271 290 278 267 241 231 227 184 176 186 191 194 202 210 218 222 222 223 225 223 212 159 85 115 117 117 144 169 190 189 95 32 9 17 359 330 354
308 309 310 310 311 310 310 308 306 305 300 294 291 283 278 279 255 221 203 203 238 238 256 271 284 297 293 291 295 290 291 294 290 297 294 285 342 330 298 288 303 317 328 298 279 274 269 280 293 286 278 264 268 280 277 263 264 189 183 195 197 192 196 205 216 222 221 218 222 226 217 122 37 91 120 124 173 173 175 324 340 327 318 354 356 344 357
309 310 310 311 312 312 311 309 308 305 301 296 294 287 283 287 268 227 209 201 225 248 259 264 267 273 277 279 279 280 286 286 279 281 283 294 343 328 293 275 9 318 279 257 290 298 287 286 295 279 271 288 312 294 280 259 242 215 208 220 220 207 205 205 205 215 223 219 219 221 214 36 18 12 117 91 43 88 4 341 335 332 339 347 340 339 356
309 309 310 311 312 312 311 309 308 306 304 299 295 292 287 289 283 240 217 208 207 253 252 246 250 259 265 268 272 277 282 283 283 288 287 291 310 308 296 316 326 299 308 337 298 304 311 299 304 305 293 300 298 286 287 269 239 215 213 228 239 236 235 221 202 197 216 216 211 215 267 14 6 351 39 40 23 13 354 338 336 345 351 350 342 340 346
310 310 312 313 313 313 311 311 309 307 306 301 297 297 290 285 290 253 221 213 213 230 237 245 265 271 269 269 271 272 271 274 278 278 279 284 285 277 282 295 294 290 317 313 287 299 328 309 307 320 314 297 288 289 290 275 249 214 203 216 224 219 270 282 265 262 268 254 258 330 350 348 343 343 12 15 358 342 341 339 337 341 349 353 346 335 335
311 312 314 314 314 313 311 312 311 308 307 305 301 299 293 290 294 256 220 213 218 235 244 253 268 274 270 266 266 264 261 262 263 259 257 263 273 274 270 275 284 289 293 302 304 313 320 310 312 322 319 309 306 305 288 262 252 243 223 228 250 267 280 297 294 290 294 285 275 278 288 296 313 322 340 347 333 323 331 337 337 341 343 344 342 335 331
312 314 316 315 314 313 312 312 311 309 309 308 305 300 296 295 293 244 211 207 218 243 249 248 248 255 260 257 261 266 257 248 246 246 242 240 247 263 265 264 289 295 280 297 310 303 302 305 303 299 296 306 319 309 287 269 277 294 274 248 246 242 238 249 259 264 276 276 264 258 264 289 320 320 316 309 302 311 328 332 334 341 340 337 338 335 329
315 316 316 316 315 314 314 313 311 311 311 310 307 303 297 294 286 226 201 198 212 229 244 252 239 242 257 264 270 272 257 241 236 233 230 230 236 248 267 291 310 298 296 313 302 284 287 296 292 284 286 306 328 303 284 287 301 308 290 263 255 257 253 252 251 247 248 257 265 276 287 293 298 296 288 285 295 317 330 329 330 333 330 328 333 334 330
316 317 318 317 316 315 315 315 313 312 313 311 306 300 293 292 281 227 201 187 163 212 238 266 262 252 261 269 268 262 247 239 239 238 236 236 237 243 258 275 280 275 281 287 275 275 285 283 282 284 284 297 312 293 288 298 297 286 274 264 265 280 291 264 255 253 250 250 257 270 282 284 279 270 267 280 315 331 326 321 321 321 321 323 327 328 327
318 319 319 318 317 316 315 315 315 315 315 312 305 296 287 280 271 230 198 178 156 212 237 249 269 269 268 269 266 257 245 240 244 249 249 245 241 242 248 255 261 265 268 266 265 273 274 268 271 274 274 288 301 288 282 286 282 275 268 262 257 253 252 249 249 250 248 244 245 253 265 271 272 275 280 298 330 328 317 316 316 315 318 321 322 322 323
319 321 321 319 318 317 316 317 318 319 316 311 303 298 287 257 247 230 202 192 194 244 287 265 283 292 283 276 265 248 239 238 240 244 245 242 238 238 239 243 252 256 256 258 262 260 252 256 265 270 271 287 289 276 271 272 267 265 263 256 248 248 251 250 250 251 252 253 251 250 258 273 287 294 296 302 314 310 304 303 304 306 310 312 314 320 320
322 323 322 321 319 319 319 320 322 322 319 313 300 290 278 190 216 228 206 202 207 229 299 279 276 289 294 295 275 245 239 237 234 235 238 239 236 235 236 241 246 248 254 260 260 258 256 259 264 266 274 296 296 281 277 270 259 259 263 260 255 254 253 251 255 261 266 267 263 260 261 267 275 282 285 288 296 298 295 294 294 296 301 303 304 307 308
325 324 323 323 322 323 325 327 329 333 340 75 222 235 179 108 127 217 207 205 207 213 257 283 279 304 309 298 281 261 247 236 231 232 235 239 238 235 234 237 240 246 254 256 257 266 272 268 266 267 268 272 275 274 274 273 268 270 274 272 266 257 251 246 246 252 258 263 267 271 272 271 273 277 277 278 282 285 284 285 286 288 291 294 294 293 295
325 324 325 327 327 329 336 343 1 33 68 89 269 264 11 57 59 229 208 201 204 210 242 279 276 300 310 275 250 257 256 245 239 237 236 237 237 231 226 227 230 234 240 247 257 267 270 270 274 278 276 270 266 266 271 277 280 278 278 277 273 264 261 258 253 253 257 261 263 263 263 262 263 264 262 263 266 269 270 272 275 279 283 285 286 287 291
327 328 331 332 332 345 17 39 58 71 67 47 44 48 39 33 32 237 191 184 195 209 244 281 283 300 313 264 217 252 257 254 251 247 241 235 232 227 221 220 224 226 233 249 263 259 260 266 269 274 283 286 273 270 272 271 269 272 279 286 290 288 284 278 271 264 260 256 257 257 255 251 250 252 256 260 262 264 267 269 271 276 278 279 280 280 282
333 335 337 337 349 53 67 68 78 87 87 80 76 64 39 34 106 171 161 157 171 211 260 281 294 306 316 328 351 186 233 251 247 246 244 230 221 220 216 219 228 228 223 228 239 246 257 263 263 268 280 287 263 269 268 258 258 270 281 289 291 290 287 282 277 273 266 258 254 255 256 255 254 255 259 262 264 264 264 266 270 273 271 271 274 274 273
340 342 341 350 76 91 85 90 105 109 102 95 87 58 25 51 135 147 143 137 135 221 241 274 298 308 305 304 293 138 254 294 256 223 254 243 230 230 215 208 226 229 215 214 229 248 255 263 271 272 270 259 242 252 258 261 269 280 286 286 284 283 282 278 272 267 264 260 255 253 256 260 261 258 256 257 259 259 257 259 263 264 263 265 270 270 267
349 349 345 79 114 105 96 110 145 166 103 79 75 48 43 120 138 141 135 124 356 311 257 281 301 315 316 321 65 77 341 312 303 17 15 285 242 238 165 173 214 221 211 217 238 248 253 279 297 273 256 243 238 240 266 292 297 294 287 282 280 278 274 271 267 262 259 259 257 256 258 259 257 254 252 251 251 250 250 253 255 254 256 261 264 262 257
359 351 5 124 133 140 132 95 33 352 41 62 60 75 117 127 133 141 159 358 29 25 322 297 294 316 325 337 24 18 345 329 344 26 75 121 277 102 104 227 238 219 210 241 252 263 276 310 291 273 261 254 262 274 296 299 292 286 279 275 275 272 266 262 261 260 258 257 257 258 259 258 256 253 250 249 248 247 248 249 247 244 245 250 253 254 250
21 9 107 142 164 199 162 72 45 33 56 121 125 119 123 129 132 144 222 238 83 89 34 317 310 323 327 318 337 356 351 339 345 14 71 46 350 50 128 288 300 314 284 269 279 299 290 262 264 278 269 264 286 297 298 291 285 282 280 278 278 276 267 258 254 254 254 253 254 254 253 251 250 248 246 245 242 240 241 242 238 235 238 239 240 241 239
32 313 187 188 215 271 60 49 40 65 139 158 141 126 140 170 175 141 175 195 169 132 141 236 289 315 318 309 341 1 354 333 343 12 43 25 357 64 112 353 344 329 298 288 318 325 291 268 259 269 265 283 300 299 297 296 298 301 300 296 294 287 270 252 246 247 249 250 249 247 244 240 238 235 236 236 235 233 233 232 228 227 232 233 228 225 226
7 254 211 222 10 40 41 18 38 116 145 169 180 179 199 206 213 17 157 177 185 169 174 233 265 232 276 308 356 15 353 333 359 14 25 31 28 38 38 10 359 328 314 314 28 6 317 300 282 273 295 325 325 317 316 321 325 329 330 324 318 313 294 258 241 236 237 242 245 245 243 240 233 227 224 225 225 225 224 222 221 222 224 222 213 201 201
12 355 33 37 36 47 41 28 85 141 158 195 228 235 230 59 2 333 12 64 4 165 161 198 214 191 226 280 349 22 3 349 6 7 15 36 35 10 22 16 353 333 338 342 8 3 328 312 317 328 335 337 333 330 334 337 337 340 343 341 340 342 342 328 283 245 238 241 246 248 246 239 228 219 216 217 218 218 216 215 217 220 216 206 183 159 171
9 9 18 19 356 327 314 143 182 180 181 324 313 315 12 27 30 2 11 16 8 3 150 178 169 148 201 240 278 341 354 32 359 335 1 42 37 321 22 23 305 346 12 359 336 333 331 330 348 351 342 335 332 336 343 346 344 346 349 351 351 351 352 359 6 353 276 246 242 243 242 238 230 221 215 212 210 210 210 209 211 211 202 181 154 147 178
2 3 347 302 286 268 240 250 333 346 1 360 357 359 9 19 27 25 25 26 9 340 328 342 36 57 92 185 220 287 8 162 218 271 359 54 54 342 15 23 16 34 23 343 315 340 4 5 0 352 341 335 336 342 349 352 350 349 353 356 359 1 7 17 24 24 18 356 276 231 193 202 212 211 205 200 199 204 208 203 197 196 184 158 142 149 171
4 359 341 281 270 277 317 5 4 15 22 355 354 2 7 12 19 26 35 60 334 333 343 349 5 76 128 162 204 204 154 177 230 273 23 71 87 342 36 38 28 22 3 307 339 13 22 14 358 346 338 339 342 347 353 354 352 350 353 358 2 9 18 27 31 28 26 26 30 40 54 72 91 110 136 159 167 172 175 158 142 132 131 136 138 140 141
341 339 334 309 326 358 7 353 346 11 30 19 7 7 7 9 18 25 25 21 10 10 7 353 343 9 60 71 325 260 141 168 217 260 43 65 48 35 41 39 26 14 4 19 22 23 23 11 354 343 340 343 346 349 354 357 354 352 354 358 4 11 19 28 33 30 26 26 30 32 35 41 45 46 48 64 95 117 120 110 99 90 85 93 110 116 115
336 1 8 12 8 11 20 359 351 13 27 26 17 13 11 10 13 16 13 7 12 31 34 15 355 2 23 35 4 7 47 87 113 40 24 36 46 44 40 36 30 31 38 37 30 24 18 8 356 348 348 348 348 352 359 2 359 356 357 1 6 11 15 22 28 29 27 30 34 33 33 37 38 38 39 40 41 55 85 95 93 88 81 72 72 89 100
34 15 8 16 17 25 44 39 20 21 29 25 16 15 15 15 16 14 2 352 2 23 33 27 17 10 4 358 8 27 27 37 51 37 23 36 50 47 40 33 32 35 38 37 33 24 11 1 352 349 352 352 350 356 3 5 4 5 6 7 8 10 12 18 23 23 21 26 34 35 35 37 39 43 49 45 37 40 60 73 73 73 74 68 60 69 79
42 360 4 28 26 29 43 42 33 32 31 23 17 19 19 18 22 21 4 349 347 351 351 2 34 36 13 360 17 36 35 35 38 32 29 43 50 45 40 38 36 32 28 27 27 20 8 359 355 355 358 358 357 360 5 8 9 11 13 13 11 11 14 21 26 24 20 24 31 32 30 33 41 46 51 51 44 43 54 63 66 66 68 69 64 62 64
14 346 17 41 38 34 33 30 29 36 35 25 18 18 18 18 21 17 3 347 341 342 338 335 346 10 14 18 29 31 30 38 45 42 40 46 45 36 31 35 37 37 25 15 12 13 11 10 6 4 3 3 3 3 6 10 13 14 16 15 14 15 19 23 27 27 26 28 32 32 26 26 34 39 42 45 46 45 49 57 64 65 64 63 61 59 59
24 5 20 42 50 44 32 20 19 31 34 26 18 16 15 16 17 10 357 347 349 354 353 346 344 349 356 10 30 35 29 27 35 43 46 47 45 39 28 25 31 33 24 12 8 9 10 10 10 10 8 6 5 6 8 11 15 18 19 17 12 14 20 24 26 28 29 29 32 36 35 33 35 36 36 38 41 41 43 47 53 56 55 54 54 54 54
35 28 30 32 32 32 28 21 22 25 25 20 18 14 10 10 12 8 358 350 349 354 4 9 12 14 8 6 25 43 38 26 30 44 45 42 43 46 39 30 31 33 21 11 11 13 11 7 8 11 10 8 7 7 9 11 14 17 20 22 20 18 22 27 28 29 30 30 31 34 38 39 40 41 42 43 44 45 45 46 49 51 53 53 53 53 52
38 47 46 36 29 27 23 21 24 25 20 17 17 11 5 6 10 5 356 350 352 6 18 17 15 23 25 21 21 30 30 27 39 49 47 38 34 37 36 31 31 38 43 24 18 16 15 12 12 12 11 10 10 10 9 11 15 16 18 22 24 23 24 28 30 30 30 30 31 33 37 41 44 46 47 47 47 47 47 47 48 51 54 56 57 56 55
29 49 51 42 35 30 22 19 22 22 18 17 16 8 4 8 8 359 352 353 4 16 18 16 16 27 31 24 14 16 29 34 37 40 42 39 28 18 17 19 16 13 18 28 25 18 17 17 17 14 11 10 11 12 11 11 15 18 18 21 24 25 25 28 31 32 32 30 29 30 34 39 42 44 45 45 45 45 45 44 46 49 53 55 57 59 58